Voltar ao catálogo

LES 1

AtivoComunicaçõesMEO
NORAD 1002·PAYLOAD·🇺🇸 United States

Lançado Feb 11, 1965 de Cape Canaveral Space Force Station

Loading…

Próximas Passagens (próximas 24 horas)

TLE

AtualizadoSource: Space-Track

Época: Sep 14, 2026, 04:22 UTC

1 01002U 65008C   26257.18263602  .00000017  00000-0  11356-2 0  9998
2 01002  32.1398 193.8845 0015302 231.8645 128.0472  9.88355025224994

Acompanhe LES 1 em tempo real com AllMySat

Download on the App Store